Willimantic, CT

4:00 PM EST on December 11, 2019 (GMT -0500)
Windham

Weather History for KIJD - October, 2019

Change the Weather History Date:

Tuesday, October 1, 2019

  Actual Average Record
Temperature  
Mean Temperature 65 °F -  
Max Temperature 73 °F 67 °F 85 °F (1986)
Min Temperature 57 °F 41 °F 25 °F (1992)
Growing Degree Days 15 (Base 50)    
Moisture  
Dew Point 59 °F    
Average Humidity 84    
Maximum Humidity 93    
Minimum Humidity 71    
Precipitation  
Precipitation 0.01 in - - ()
Sea Level Pressure  
Sea Level Pressure 30.05 in    
Wind  
Wind Speed 4 mph ()    
Max Wind Speed 10 mph    
Max Gust Speed -    
Visibility 10.0 miles    
Events Rain    
Averages and records for this station are not official NWS values.
T = Trace of Precipitation, MM = Missing Value Source: Averaged Metar Reports

Daily Weather History Graph

Daily Weather History Graph

Search for Another Location

Airport or City:

Astronomy

Oct. 01, 2019 Rise Set
Actual Time 6:45 AM EDT 6:30 PM EDT
Civil Twilight 6:17 AM EDT 6:58 PM EDT
Nautical Twilight 5:45 AM EDT 7:30 PM EDT
Astronomical Twilight 5:12 AM EDT 8:03 PM EDT
Moon 10:00 AM EDT (10/1) 8:39 PM EDT (10/1)
Length of Visible Light 12h 40m
Length of Day
11h 45m
Waxing Crescent, 12% of the Moon is Illuminated
Oct 1
Waxing Crescent
Oct 5
First Quarter
Oct 13
Full
Oct 21
Last Quarter
Oct 27
New

Hourly Weather History & Observations

Time (EDT) Temp. Dew Point Humidity Pressure Visibility Wind Dir Wind Speed Gust Speed Precip Events Conditions
12:52 AM 57.0 °F 54.0 °F 89% 30.22 in 10.0 mi South 3.5 mph - 0.01 in   Overcast
1:52 AM 57.0 °F 54.0 °F 89% 30.20 in 10.0 mi South 3.5 mph - N/A   Overcast
2:28 AM 57.0 °F 54.0 °F 89% 30.19 in 10.0 mi SSW 3.5 mph - N/A   Overcast
2:52 AM 57.0 °F 54.0 °F 89% 30.19 in 10.0 mi Calm Calm - N/A   Overcast
3:52 AM 57.0 °F 54.0 °F 89% 30.17 in 10.0 mi Calm Calm - N/A   Overcast
4:52 AM 57.9 °F 54.0 °F 87% 30.15 in 10.0 mi South 5.8 mph - N/A   Overcast
5:32 AM 57.9 °F 54.0 °F 87% 30.14 in 10.0 mi South 4.6 mph - 0.00 in   Overcast
5:52 AM 57.9 °F 54.0 °F 87% 30.13 in 10.0 mi South 3.5 mph - 0.00 in   Overcast
6:52 AM 57.9 °F 55.0 °F 90% 30.12 in 10.0 mi South 5.8 mph - N/A   Overcast
7:52 AM 59.0 °F 55.0 °F 87% 30.15 in 10.0 mi Variable 3.5 mph - 0.00 in Rain Light Rain
8:52 AM 59.0 °F 57.0 °F 93% 30.12 in 10.0 mi South 5.8 mph - 0.00 in   Overcast
9:52 AM 62.1 °F 57.9 °F 86% 30.11 in 10.0 mi SSW 4.6 mph - N/A   Overcast
10:52 AM 64.0 °F 59.0 °F 84% 30.09 in 10.0 mi SSW 6.9 mph - N/A   Overcast
11:52 AM 64.9 °F 60.1 °F 84% 30.04 in 10.0 mi SSW 9.2 mph - N/A   Overcast
12:38 PM 66.0 °F 61.0 °F 84% 30.05 in 10.0 mi Variable 3.5 mph - 0.00 in   Overcast
12:52 PM 66.0 °F 61.0 °F 84% 30.06 in 10.0 mi Calm Calm - 0.00 in   Overcast
1:00 PM 66.0 °F 61.0 °F 84% 30.05 in 10.0 mi SW 3.5 mph - N/A   Overcast
1:52 PM 69.1 °F 62.1 °F 78% 30.01 in 10.0 mi SSW 10.4 mph - N/A   Overcast
2:52 PM 70.0 °F 62.1 °F 76% 29.99 in 10.0 mi SW 6.9 mph - N/A   Overcast
3:52 PM 72.0 °F 63.0 °F 73% 29.98 in 10.0 mi Variable 5.8 mph - N/A   Overcast
4:37 PM 73.0 °F 63.0 °F 71% 29.96 in 10.0 mi SW 9.2 mph - N/A   Scattered Clouds
4:52 PM 73.0 °F 63.0 °F 71% 29.96 in 10.0 mi SW 6.9 mph - N/A   Clear
5:52 PM 73.0 °F 63.0 °F 71% 29.94 in 10.0 mi SSW 9.2 mph - N/A   Clear
6:52 PM 70.0 °F 63.0 °F 78% 29.94 in 10.0 mi SSW 6.9 mph - N/A   Clear
7:52 PM 68.0 °F 63.0 °F 84% 29.93 in 10.0 mi SSW 5.8 mph - N/A   Clear
8:52 PM 66.9 °F 64.0 °F 90% 29.92 in 10.0 mi SSW 5.8 mph - N/A   Clear
9:52 PM 68.0 °F 64.0 °F 87% 29.91 in 10.0 mi SSW 4.6 mph - N/A   Clear
10:52 PM 68.0 °F 64.9 °F 90% 29.89 in 10.0 mi SW 5.8 mph - N/A   Clear
11:52 PM 66.9 °F 64.9 °F 93% 29.86 in 10.0 mi SSW 5.8 mph - N/A   Clear